Cloud_Cover
79 5 5 4 9 100 100 100 5 100 44 99 100 85 34 0 61 100 100 100 100 100 100 100 100 100 42 95 100 66 100 78 99 20 6 8 15 0 0 0 0 0 0 0 0 1 5 0 0
1 5 5 0 43 100 99 10 5 0 2 16 78 47 23 1 28 100 100 100 100 100 100 100 100 100 100 100 100 94 100 100 100 100 100 80 22 0 0 0 0 0 0 0 0 0 0 1 0
0 0 0 0 74 100 100 6 5 0 0 3 0 0 0 70 100 100 100 100 100 100 100 100 100 100 4 46 79 5 3 18 48 33 15 0 0 0 0 0 0 0 12 1 0 0 0 0 0
0 0 0 0 1 100 100 5 5 0 0 6 26 5 0 0 100 100 95 100 100 100 100 100 100 70 28 4 0 0 6 1 0 0 0 0 0 0 0 0 0 0 1 0 0 0 0 0 0
0 0 0 0 5 4 60 13 0 0 0 5 61 61 4 0 6 98 100 100 100 100 100 100 100 33 5 5 15 48 87 78 9 2 0 0 0 0 0 0 0 0 0 0 0 0 0 0 0
0 0 0 16 67 0 0 0 0 0 0 5 93 73 4 0 3 4 2 98 100 100 100 100 70 71 99 100 96 66 95 100 87 5 0 0 0 0 0 0 0 0 0 0 0 0 0 0 0
0 0 0 0 10 2 3 2 0 0 0 0 5 92 5 0 0 2 5 0 15 14 78 57 93 100 82 31 100 100 100 49 2 0 0 0 0 0 0 0 0 0 0 0 0 0 0 0 0
0 0 0 0 3 19 19 5 3 0 3 2 0 0 38 3 0 0 0 55 3 0 0 46 77 99 100 99 60 10 5 11 4 0 0 0 0 0 0 0 0 0 0 0 0 0 0 0 0
3 0 0 10 16 96 5 0 0 0 0 0 4 7 5 2 9 84 100 7 92 79 83 30 69 100 99 96 69 31 17 4 0 1 0 1 16 1 0 0 0 0 0 4 5 60 66 29 5
4 7 64 96 5 9 10 0 5 1 0 0 0 5 30 5 3 71 100 97 62 8 8 35 81 91 83 75 98 67 71 48 29 81 74 5 5 4 0 0 0 0 0 0 0 5 4 2 0
0 0 98 32 9 9 20 1 5 3 0 0 0 0 67 79 37 82 9 100 100 15 2 8 0 25 36 1 25 23 37 10 90 100 100 100 42 5 4 0 1 18 0 3 0 0 3 1 5
0 4 2 4 1 2 67 7 1 8 1 0 0 3 0 4 5 100 100 98 17 88 100 100 100 100 100 100 92 100 100 100 100 100 100 100 100 78 14 3 2 3 3 5 1 1 0 5 5
0 0 1 5 1 0 5 3 0 5 9 0 0 4 0 0 0 100 94 100 29 99 100 100 100 100 100 100 100 99 100 100 100 100 100 100 100 100 100 100 99 75 1 0 0 4 9 2 4
0 0 0 0 0 1 4 34 0 1 5 4 0 2 0 0 0 10 2 0 2 32 100 100 100 100 100 100 100 100 100 100 100 100 100 100 100 100 100 100 100 100 56 100 51 0 3 0 0
0 0 0 0 0 0 0 2 0 98 4 0 4 0 1 0 0 0 0 0 0 0 6 37 36 100 100 100 100 100 100 100 100 100 100 100 100 100 100 100 100 100 100 100 100 100 14 9 66
0 0 0 0 0 0 0 0 5 4 0 0 0 0 0 0 4 5 4 0 0 0 0 98 100 100 100 73 93 100 100 100 100 100 100 100 100 100 100 100 100 100 100 100 100 86 59 92 100
0 0 0 0 0 0 0 0 0 0 0 0 0 0 0 0 0 4 5 0 0 0 0 4 8 96 85 100 100 100 100 100 100 100 100 100 100 100 100 100 100 100 100 100 58 9 3 4 46
0 0 0 0 0 0 0 0 0 0 0 0 0 0 0 0 0 4 5 0 0 0 2 8 6 18 78 100 100 100 100 100 100 100 100 100 100 100 100 100 100 100 100 100 21 73 6 0 0
0 0 0 0 0 0 0 0 0 0 0 0 0 0 0 0 0 4 0 0 0 0 0 0 5 70 88 100 100 100 100 100 100 100 100 100 100 100 100 100 100 100 100 85 93 29 0 0 0
0 0 0 0 0 0 0 0 0 0 0 0 0 0 0 0 0 0 0 12 0 0 2 0 4 48 100 100 100 100 100 100 100 100 100 100 100 100 100 100 100 100 100 43 59 0 0 3 2
0 0 0 0 0 3 0 0 0 0 0 0 0 0 0 0 0 0 0 47 0 0 0 0 0 24 100 100 100 100 100 100 100 100 100 100 100 100 100 100 100 100 97 5 0 0 0 12 0
0 0 2 0 0 0 0 0 0 0 0 0 0 0 0 0 0 0 0 42 0 0 0 0 0 2 100 100 100 100 100 100 100 100 100 100 100 100 100 100 100 100 35 5 13 2 0 4 0
32 0 0 0 5 4 0 0 0 0 1 0 0 0 0 0 0 1 0 0 0 0 0 0 0 0 42 100 100 100 100 100 100 100 100 100 100 100 100 100 100 44 5 5 6 17 5 5 5
34 48 88 35 52 85 0 0 0 0 3 0 5 5 10 28 5 7 18 5 1 0 0 0 0 1 58 78 100 100 100 100 100 100 100 100 100 100 97 59 49 2 5 19 52 90 73 19 10
93 99 100 100 89 66 0 0 0 0 0 0 0 32 100 100 100 90 99 6 5 3 0 0 0 3 14 100 100 100 100 100 100 100 100 100 100 55 12 25 46 16 4 5 46 52 60 67 10
96 57 35 100 4 11 0 3 0 0 0 0 0 0 3 79 100 100 100 21 5 5 5 4 36 5 74 100 100 100 100 100 100 100 100 56 38 28 0 0 2 5 18 99 96 59 78 100 30
85 5 17 100 100 70 1 1 0 0 0 0 0 0 0 0 5 59 99 7 18 16 12 100 95 64 43 99 100 100 100 100 99 20 15 27 3 0 0 0 0 5 17 60 37 51 97 73 100
10 34 51 82 94 100 15 2 0 0 0 0 0 0 0 0 4 5 5 26 94 91 98 100 82 68 58 93 79 100 100 100 99 24 10 0 0 0 4 0 0 5 33 96 56 14 79 100 100
97 96 91 87 47 100 60 3 0 0 0 0 0 0 0 0 6 36 95 100 100 100 100 100 100 17 94 100 100 100 100 99 50 5 3 0 2 5 5 0 0 0 2 3 2 0 5 74 94
64 93 91 100 98 98 77 12 98 22 0 0 0 0 3 3 66 100 100 100 100 100 100 100 55 100 100 100 100 100 100 100 98 5 5 7 7 20 5 0 3 0 0 0 0 1 4 0 6